Regional Weather Roundup
Issued by NWS

Home | Current Version | Previous Version | Text Only | Print | Product List | Glossary Off
Versions: 1 2 3 4 5 6 7 8 9 10 11 12 13 14 15 16 17 18 19 20 21 22 23 24 25 26 27 28 29 30 31 32 33 34 35 36 37 38 39 40 41 42 43 44 45 46 47 48 49 50

000
ASUS43 KLOT 252110
RWRIL

ILLINOIS REGIONAL WEATHER ROUNDUP
NATIONAL WEATHER SERVICE CHICAGO/ROMEOVILLE IL
300 PM CST THU DEC 25 2014

NOTE: "FAIR" INDICATES FEW OR NO CLOUDS BELOW 12,000 FEET WITH NO
SIGNIFICANT WEATHER AND/OR OBSTRUCTIONS TO VISIBILITY.

* THESE STATIONS ARE NOT UNDER NWS QUALITY CONTROL. THEY ALSO MAY NOT
  REPORT WEATHER SUCH AS PRECIPITATION OR FOG.

ILZ001-002-007-009-015-016-024-252200-
NORTHWEST ILLINOIS

CITY           SKY/WX    TMP DP  RH WIND       PRES   REMARKS
MOLINE         PTSUNNY   49  30  48 S13       29.86S
STERLING*      MOSUNNY   46  34  61 S7        29.91S
SAVANNA*       CLOUDY    47  32  55 S14       29.88S
$$

ILZ003-004-008-010-011-017-018-252200-
NORTH CENTRAL ILLINOIS

CITY           SKY/WX    TMP DP  RH WIND       PRES   REMARKS
ROCKFORD       PTSUNNY   44  32  62 S14       29.93S
FREEPORT*      MOSUNNY   42  33  69 S12       29.91S
ROCHELLE*      SUNNY     42  35  74 S17       29.93R
DE KALB*       MOSUNNY   41  33  74 S16       29.94S
PERU*          SUNNY     46  34  62 S15       29.95R
$$

ILZ005-006-012>014-019>023-252200-
NORTHEAST ILLINOIS

CITY           SKY/WX    TMP DP  RH WIND       PRES   REMARKS
CHICAGO-OHARE  MOSUNNY   42  31  64 S12       29.96R
CHICAGO-MIDWAY PTSUNNY   44  32  62 S16G22    29.98S
AURORA         MOSUNNY   45  32  60 S15       29.96R
LANSING*       PTSUNNY   41  34  75 S14       30.00S
JOLIET*        MOSUNNY   44  33  65 S13       29.98R
WAUKEGAN       MOSUNNY   41  30  65 SW17      29.94R
DUPAGE AIRPORT SUNNY     43  32  65 S18       29.95R
KANKAKEE*      PTSUNNY   43  36  76 S15       30.01S
WHEELING       MOSUNNY   42  31  64 S16       29.97S
MORRIS*        MOSUNNY   45  36  70 S14       29.97R
ROMEOVILLE*    MOSUNNY   43  33  67 SW16      29.98R
NORTHERLY ISL    N/A     42  31  65 SW9         N/A
$$

LMZ740>746-252200-
SOUTHERN LAKE MICHIGAN

STATION/POSITION SKY/WX   TEMP    WIND        PRES    VSBY  WAVE
                          AIR SEA DIR/SP/G                  HT/PER
                          (F)     (DEG/KT/KT) (MB)    (MI)  (FT/S)
WAUKEGAN HARBOR            41                   N/A
HARRISON CRIB              40     190/ 18/ 20   N/A
BURNHAM HARBOR             42     220/ 14/ 16   N/A
CALUMET HARBOR             41     190/  9/ 17 1014.3R
MICHIGAN CITY              39     190/ 14/ 19   N/A
$$

ILZ025>027-034>036-040-047-049-050-058-095>099-252200-
WEST-CENTRAL ILLINOIS

CITY           SKY/WX    TMP DP  RH WIND       PRES   REMARKS
QUINCY         SUNNY     49  30  48 S14G22    29.89S
GALESBURG*     MOSUNNY   47  33  59 S12G17    29.90S
MACOMB*        SUNNY     48  34  58 S15       29.92S
JACKSONVILLE*  SUNNY     51  35  54 SE10G17   29.94S
PITTSFIELD*    SUNNY     50  34  53 S13G18    29.93R
$$

ILZ028>032-037-038-041>044-048-051>054-059>061-252200-
CENTRAL ILLINOIS

CITY           SKY/WX    TMP DP  RH WIND       PRES   REMARKS
PONTIAC        SUNNY     46  36  67 S14       29.98S
BLOOMINGTON    SUNNY     46  37  70 S18       29.98S
DECATUR        SUNNY     47  35  63 S15       30.01R
PEORIA         SUNNY     49  34  56 S15       29.94R
LACON*         SUNNY     47  32  55 S12       29.94R
LINCOLN*       SUNNY     48  36  61 S14       29.97S
SPRINGFIELD    SUNNY     49  36  61 S16G23    29.98R
TAYLORVILLE    SUNNY     45  36  70 S20       30.00R
$$

ILZ033-039-045-046-055>057-062-063-252200-
EAST-CENTRAL ILLINOIS

CITY           SKY/WX    TMP DP  RH WIND       PRES   REMARKS
CHAMPAIGN      MOSUNNY   45  36  70 S18       30.02R
DANVILLE*      MOSUNNY   42  35  75 S13G21    30.01S
RANTOUL*       MOSUNNY   46  37  71 S14G20    30.02R
MATTOON        SUNNY     45  35  68 S15G22    30.03R
PARIS*         MOSUNNY   45  37  76 S15       30.07R
$$

ILZ079-100>102-252200-
SOUTHWEST ILLINOIS

CITY           SKY/WX    TMP DP  RH WIND       PRES   REMARKS
ALTON          SUNNY     50  32  50 S16G25    29.99R
BELLEVILLE     SUNNY     50  36  57 S18G24    30.00R
CAHOKIA*       SUNNY     52  33  48 S12G21    29.99R
SPARTA*        SUNNY     48  34  59 S14       30.04S
$$

ILZ064>066-069>071-074>076-080>082-084>086-088>090-092>094-252200-
SOUTH-CENTRAL ILLINOIS

CITY           SKY/WX    TMP DP  RH WIND       PRES   REMARKS
CARBONDALE     SUNNY     49  33  54 S21       30.08R
CAIRO*         SUNNY     51  37  59 S10G17    30.11S
EFFINGHAM*     MOSUNNY   48  32  53 SE8G18    30.06R
MARION         MOSUNNY   48  36  61 S17       30.09R
MT. VERNON     SUNNY     48  34  57 S18       30.07R
CENTRALIA*     SUNNY     47  34  58 S17       30.04S
SALEM*         SUNNY     50  34  54 S16G26    30.05R
METROPOLIS*    SUNNY     50  36  58 S14       30.11R
$$

ILZ067-068-072-073-078-083-087-091-252200-
SOUTHEAST ILLINOIS

CITY           SKY/WX    TMP DP  RH WIND       PRES   REMARKS
LAWRENCEVILLE  MOSUNNY   48  35  60 S15       30.09S
FLORA*         SUNNY     47  35  63 S14G20    30.07R
FAIRFIELD*     SUNNY     47  36  65 S15       30.07S
HARRISBURG*    SUNNY     49  33  55 S14       30.10R
ROBINSON*      MOSUNNY   46  35  67 S14       30.09R
CARMI*         SUNNY     50  38  62 S15       30.10R
$$

ABBREVIATIONS USED IN REMARKS
   TC - TEMPERATURE IN CELSIUS
  WCI - WIND CHILL INDEX
   HX - HEAT INDEX
  VSB - VISIBILITY
$$




USA.gov is the U.S. government's official web portal to all federal, state and local government web resources and services.